Wind_Speed
80 80 80 80 81 81 81 81 81 79 75 74 75 74 75 75 75 76 75 74 73 72 70 68 66 65 64 63 62 61 60 60 60 61 61 61 61 62
83 83 82 82 82 82 82 82 82 82 78 73 75 75 75 75 75 75 74 74 74 72 70 69 67 66 65 64 64 63 62 62 61 61 62 62 62 63
85 85 84 83 83 82 82 82 82 81 79 74 75 75 75 74 74 74 73 73 72 72 71 70 68 67 66 66 65 65 64 64 63 63 63 63 63 64
84 84 84 83 83 82 81 81 80 79 78 74 73 74 73 73 73 73 72 72 71 71 71 70 69 68 67 67 66 66 66 66 65 65 65 64 64 65
82 81 80 80 79 78 78 77 76 76 75 73 70 71 71 71 71 71 71 70 70 69 69 69 69 68 68 67 66 66 66 66 66 67 67 67 66 66
76 75 75 74 74 73 73 72 72 71 71 70 68 68 68 68 69 69 69 69 69 69 69 68 67 67 67 67 67 67 67 68 68 68 68 68 68 68
69 68 68 68 67 67 67 66 66 66 66 66 64 64 65 65 66 67 68 68 68 68 68 68 68 68 68 67 67 68 68 68 68 67 67 68 68 68
62 62 61 61 61 61 61 61 61 61 61 61 61 60 60 61 63 64 64 65 64 65 67 67 67 66 66 67 68 68 68 68 68 67 68 68 68 68
57 57 56 56 56 56 57 57 57 58 58 58 58 57 58 59 60 61 62 62 63 64 65 64 65 65 66 66 67 68 68 68 68 68 68 69 69 69
54 53 52 52 52 53 53 53 53 54 54 55 55 54 56 58 59 60 61 61 61 62 62 62 63 64 64 64 65 65 66 67 67 67 68 68 68 68
50 49 49 48 49 49 49 49 49 50 51 52 53 53 54 55 57 58 59 60 60 60 61 61 61 62 62 62 63 64 64 65 66 66 67 67 67 68
46 45 45 45 45 46 46 46 46 47 48 50 51 52 52 53 54 55 56 57 57 57 58 59 59 60 61 61 61 62 63 63 64 65 65 66 67 68
43 42 42 43 43 43 43 44 44 45 46 48 49 50 51 51 52 53 54 54 54 55 56 57 58 59 59 59 58 59 60 61 62 63 64 66 67 69
42 41 41 41 41 42 43 43 44 45 45 46 46 47 49 50 51 52 53 53 54 54 54 55 55 56 56 56 56 56 58 60 61 62 63 65 66 67
42 41 40 40 40 41 42 42 42 43 44 44 44 45 46 47 49 50 51 52 52 52 52 53 53 54 55 55 55 55 57 58 60 61 62 63 63 64
41 40 40 39 39 38 38 39 40 40 41 41 42 43 43 44 45 46 47 47 48 49 50 51 52 52 52 53 54 54 55 55 56 58 60 60 60 60
39 38 38 37 37 37 37 38 38 39 39 40 41 41 42 43 43 44 45 46 46 46 48 49 51 51 51 52 52 52 52 53 54 56 57 56 56 57
38 37 36 35 35 36 37 38 38 38 38 38 39 39 40 40 40 41 43 44 44 45 46 47 49 50 50 49 49 49 50 50 51 52 53 53 52 52
37 36 35 35 35 35 36 36 37 37 37 37 37 38 38 38 39 40 41 42 42 43 44 46 47 48 47 46 46 47 48 48 49 49 49 50 49 49
35 34 33 33 33 34 34 34 35 35 35 35 35 35 36 37 37 38 38 38 39 40 41 42 43 44 44 43 43 43 46 47 47 47 48 48 47 47
34 34 34 34 34 34 33 33 33 33 33 33 32 32 32 33 33 34 34 35 36 37 38 39 40 41 41 41 40 40 42 45 45 45 45 45 44 44
33 33 34 34 34 33 32 32 31 31 30 30 30 30 30 31 31 31 32 32 33 34 35 36 37 38 38 38 37 37 39 41 42 42 42 43 42 38
34 34 34 34 33 32 30 29 29 28 28 28 29 29 29 29 29 29 29 30 31 32 32 33 34 35 35 35 35 36 36 37 39 39 40 40 38 34
Wind_Direction
282 281 279 278 277 276 275 274 274 273 272 272 271 270 269 269 268 269 270 270 271 270 270 269 269 269 268 267 267 268 268 268 268 267 266 265 265 263
283 281 280 278 276 275 274 273 273 272 272 271 270 269 268 268 268 268 268 268 269 269 268 267 268 268 267 267 266 266 267 268 267 267 266 265 264 263
282 281 279 277 276 274 273 273 272 272 271 269 268 268 267 267 267 267 267 268 268 267 267 267 267 267 267 266 266 266 267 267 267 266 266 265 264 263
282 280 278 277 276 274 273 273 272 271 271 270 268 268 268 267 267 267 267 267 267 267 266 266 266 266 266 266 266 265 266 267 267 266 265 264 264 263
282 280 279 277 276 275 274 273 272 271 270 269 268 268 267 267 267 267 266 266 266 266 265 265 265 266 265 266 266 266 266 266 266 266 265 264 264 263
283 282 280 279 277 276 275 274 273 272 271 269 267 266 266 265 265 266 265 265 265 264 264 265 265 265 266 266 266 266 266 266 266 265 265 264 264 263
285 284 282 281 279 277 276 275 273 272 271 270 268 267 266 265 265 264 264 264 264 264 264 264 265 265 266 266 266 266 266 266 266 265 264 264 263 262
287 286 284 282 280 278 276 275 274 273 272 271 269 268 266 265 264 264 264 264 264 265 265 265 265 265 265 265 266 265 265 266 265 265 264 263 263 263
290 288 285 282 280 279 277 275 274 273 272 271 269 268 266 265 265 264 264 264 264 265 265 266 266 266 266 266 266 265 265 265 265 264 264 263 263 263
291 289 287 283 281 279 278 276 275 274 273 271 270 268 267 266 266 266 265 266 266 267 267 267 267 266 266 266 266 265 265 265 265 264 264 264 264 264
293 291 289 286 283 280 279 277 275 274 273 272 272 271 269 268 267 267 267 267 267 267 267 267 267 267 266 266 266 266 266 265 265 264 265 265 265 265
294 292 290 288 286 283 281 279 278 275 274 273 273 272 271 270 269 269 268 268 268 268 268 268 267 267 267 267 267 266 266 266 265 265 265 266 266 266
297 294 291 289 287 285 284 282 280 278 276 274 273 273 272 272 271 271 270 269 269 269 268 268 268 268 268 267 266 266 266 266 266 267 267 267 268 268
299 296 293 290 288 287 285 284 282 280 279 277 275 274 272 272 271 271 270 270 270 270 269 268 268 268 268 268 267 267 267 267 267 268 268 269 269 270
302 299 296 293 290 288 286 285 284 283 281 279 278 276 275 273 272 271 270 270 270 270 269 269 269 269 269 269 268 267 268 268 269 269 269 269 269 270
303 301 299 296 294 291 289 287 286 285 284 282 280 278 277 275 273 272 271 271 270 270 269 269 269 269 269 269 269 269 269 269 269 269 269 269 269 269
303 302 300 297 294 292 291 289 288 287 286 284 282 280 278 276 274 273 272 271 271 270 270 270 270 270 270 271 271 270 269 269 269 269 269 269 269 270
306 304 301 298 295 292 291 290 289 288 286 285 284 283 281 278 276 274 273 272 271 270 270 271 271 272 272 272 271 271 270 271 271 271 271 270 270 271
309 307 304 301 299 296 293 291 289 288 287 286 285 283 281 279 278 277 275 274 273 271 271 271 272 273 273 272 271 272 273 273 273 273 273 272 272 271
312 311 309 307 304 301 298 295 292 290 288 287 285 283 281 280 280 279 277 275 274 273 272 273 273 274 274 273 272 273 275 275 275 274 274 274 274 274
313 312 311 309 308 305 302 299 296 293 291 289 287 285 283 282 281 280 279 277 276 275 274 274 273 274 275 274 275 274 275 276 277 277 276 276 276 275
315 314 312 311 310 308 305 302 299 297 295 292 290 287 284 283 282 281 280 279 278 277 275 275 275 276 277 278 277 277 276 277 279 279 279 279 278 274
317 316 314 313 311 310 308 306 304 301 298 296 293 290 287 285 283 282 282 281 280 279 278 277 277 278 280 281 280 280 279 279 279 279 280 281 278 275
Height
5602 5597 5592 5588 5583 5579 5576 5573 5571 5573 5579 5581 5578 5577 5574 5573 5572 5572 5573 5573 5573 5574 5575 5577 5578 5579 5580 5581 5581 5582 5583 5584 5584 5586 5588 5589 5591 5593
5577 5572 5567 5563 5558 5554 5551 5548 5545 5545 5551 5561 5556 5553 5550 5550 5550 5550 5551 5551 5552 5553 5555 5556 5558 5559 5560 5561 5563 5563 5565 5565 5566 5567 5569 5571 5573 5575
5552 5545 5542 5536 5532 5529 5525 5523 5521 5519 5523 5534 5531 5529 5528 5528 5527 5527 5528 5529 5531 5532 5534 5536 5537 5539 5540 5541 5543 5544 5545 5546 5547 5548 5550 5552 5554 5556
5525 5518 5515 5509 5506 5503 5499 5498 5497 5496 5496 5505 5508 5505 5505 5505 5505 5505 5507 5508 5510 5511 5512 5514 5516 5518 5519 5521 5522 5524 5525 5526 5527 5529 5530 5532 5534 5536
5497 5491 5488 5482 5480 5477 5474 5473 5473 5472 5472 5477 5484 5482 5483 5483 5483 5484 5485 5486 5488 5489 5490 5492 5494 5496 5498 5500 5502 5503 5504 5506 5507 5508 5510 5512 5514 5516
5472 5467 5463 5458 5456 5453 5451 5451 5450 5449 5450 5453 5458 5460 5460 5461 5461 5464 5463 5464 5466 5467 5469 5471 5473 5475 5477 5479 5481 5482 5483 5484 5486 5487 5489 5491 5493 5495
5449 5444 5440 5436 5433 5431 5430 5430 5428 5428 5429 5431 5435 5437 5438 5439 5441 5441 5442 5443 5445 5447 5449 5451 5453 5455 5456 5457 5459 5460 5461 5463 5464 5466 5467 5470 5472 5474
5429 5425 5421 5417 5414 5411 5410 5409 5409 5409 5410 5411 5413 5416 5418 5418 5419 5420 5421 5423 5427 5429 5427 5430 5431 5434 5435 5436 5437 5438 5439 5441 5442 5444 5446 5448 5450 5452
5410 5406 5403 5399 5396 5394 5392 5391 5391 5390 5391 5392 5394 5397 5398 5399 5399 5400 5401 5403 5406 5406 5407 5410 5411 5413 5414 5414 5415 5416 5418 5419 5420 5422 5424 5426 5428 5430
5393 5389 5385 5383 5380 5377 5376 5375 5374 5374 5373 5374 5376 5379 5378 5379 5379 5381 5381 5383 5386 5387 5388 5390 5391 5391 5391 5393 5393 5394 5396 5397 5398 5400 5402 5403 5405 5407
5378 5374 5370 5367 5364 5361 5360 5359 5359 5358 5357 5357 5358 5359 5360 5360 5361 5362 5363 5364 5367 5368 5367 5369 5370 5369 5370 5372 5373 5373 5374 5375 5377 5378 5379 5381 5383 5384
5365 5360 5356 5352 5350 5347 5345 5344 5344 5343 5342 5341 5341 5342 5342 5342 5342 5343 5344 5345 5347 5348 5348 5348 5349 5348 5351 5353 5353 5353 5353 5354 5355 5357 5358 5359 5360 5361
5351 5347 5343 5339 5336 5333 5331 5330 5329 5327 5327 5326 5326 5325 5325 5325 5325 5325 5326 5327 5328 5329 5329 5328 5329 5329 5331 5334 5334 5333 5333 5334 5335 5336 5336 5337 5337 5338
5338 5335 5331 5327 5323 5321 5318 5316 5314 5313 5312 5311 5310 5310 5309 5308 5307 5307 5307 5308 5310 5310 5310 5310 5311 5311 5312 5313 5315 5315 5314 5314 5314 5315 5315 5315 5315 5315
5326 5322 5318 5314 5311 5308 5305 5302 5300 5298 5297 5296 5295 5294 5292 5291 5290 5290 5290 5291 5291 5292 5292 5292 5293 5293 5293 5295 5296 5297 5296 5296 5295 5294 5294 5294 5294 5294
5314 5310 5305 5301 5298 5295 5292 5290 5287 5285 5283 5281 5279 5278 5277 5276 5275 5274 5274 5274 5274 5274 5274 5274 5274 5275 5276 5276 5277 5278 5277 5277 5276 5274 5273 5274 5274 5274
5303 5299 5294 5290 5286 5283 5280 5277 5274 5272 5270 5267 5265 5264 5262 5261 5260 5259 5258 5258 5258 5258 5257 5257 5256 5257 5258 5259 5259 5259 5258 5257 5256 5255 5254 5255 5256 5255
5292 5287 5283 5279 5275 5271 5268 5265 5262 5259 5257 5254 5251 5249 5248 5246 5245 5244 5243 5243 5242 5242 5241 5240 5240 5240 5241 5242 5242 5241 5240 5239 5238 5236 5235 5236 5238 5236
5282 5277 5272 5268 5263 5259 5256 5253 5250 5247 5244 5241 5239 5236 5234 5233 5231 5230 5229 5228 5227 5227 5226 5225 5224 5224 5224 5226 5226 5223 5222 5221 5220 5219 5218 5217 5218 5218
5273 5268 5263 5258 5253 5249 5244 5241 5237 5234 5231 5229 5226 5224 5222 5220 5218 5217 5215 5214 5213 5212 5211 5210 5209 5209 5209 5210 5210 5209 5205 5203 5202 5202 5201 5200 5200 5199
5265 5259 5254 5249 5244 5239 5234 5230 5226 5223 5220 5217 5214 5212 5210 5208 5206 5204 5203 5201 5200 5199 5198 5197 5195 5194 5194 5194 5195 5195 5191 5188 5186 5185 5184 5182 5182 5181
5256 5251 5246 5240 5235 5229 5224 5220 5216 5213 5209 5206 5203 5201 5199 5197 5195 5193 5191 5190 5188 5187 5186 5184 5183 5181 5180 5180 5179 5179 5177 5174 5171 5169 5168 5166 5164 5165
5248 5243 5237 5231 5225 5220 5215 5211 5207 5203 5200 5196 5193 5190 5188 5186 5184 5182 5181 5179 5177 5176 5174 5173 5171 5170 5168 5167 5166 5165 5163 5161 5158 5156 5155 5151 5149 5149